Terug naar catalogus

ONEWEB-0585

ActiefCommunicatiePO
NORAD 54652·PAYLOAD·🇬🇧 United Kingdom

Gelanceerd Dec 8, 2022 vanaf Cape Canaveral Space Force Station

Loading…

Volgende Passages (komende 24 uur)

TLE

VersSource: CelesTrak SupGP

Epoch: Sep 14, 2026, 09:08 UTC

1 54652C 22166L   26257.38074492  .00002032  00000+0  49252-2 0  2575
2 54652  87.9282 226.2165 0002013  79.0644  33.5407 13.21828108    17

Volg ONEWEB-0585 in realtime met AllMySat

Download on the App Store